FW3054 Weather Reports


time (UTC)temp
F
wind
direction
speed
knots
gust
knots
rain 1hr
in
rain 24hr
in
rain mn
in
humidity
%
barometer
mb
20260902091517 68 0.0 0.0 0.00 0.00 0.00 90 1022.9
20260902090537 68 0.0 0.0 0.00 0.00 0.00 90 1022.8
20260902085517 68 0.0 0.0 0.00 0.00 0.00 90 1022.8
20260902084517 68 0.0 0.0 0.00 0.00 0.00 89 1022.8
20260902083517 68 0.0 0.0 0.00 0.00 0.00 90 1022.8
20260902082537 68 0.0 0.0 0.00 0.00 0.00 90 1022.9
20260902081517 68 0.0 0.0 0.00 0.00 0.00 90 1022.8
20260902080517 68 0.0 0.0 0.00 0.00 0.00 90 1022.8
20260902075517 68 0.0 0.0 0.00 0.00 0.00 90 1022.8
20260902074517 69 0.0 0.0 0.00 0.00 0.00 90 1022.8
20260902073539 69 0.0 0.0 0.00 0.00 0.00 90 1023.0
20260902072517 69 0.0 0.0 0.00 0.00 0.00 90 1022.9
20260902071517 69 0.0 0.0 0.00 0.00 0.00 90 1023.0
20260902070517 69 0.0 0.0 0.00 0.00 0.00 90 1023.0
20260902065517 69 0.0 0.0 0.00 0.00 0.00 90 1023.0
20260902064517 69 0.0 0.0 0.00 0.00 0.00 89 1022.9
20260902063517 70 0.0 0.0 0.00 0.00 0.00 89 1022.9
20260902062517 70 0.0 0.0 0.00 0.00 0.00 89 1023.0
20260902061517 70 0.0 0.0 0.00 0.00 0.00 89 1023.0
20260902060517 70 0.0 0.0 0.00 0.00 0.00 89 1023.2
20260902055637 70 0.0 0.0 0.00 0.00 0.00 89 1023.2
20260902054517 70 0.0 0.0 0.00 0.00 0.00 89 1023.3
20260902053517 71 0.0 0.0 0.00 0.00 0.00 89 1023.2
20260902052516 71 0.0 0.0 0.00 0.00 0.00 89 1023.1
20260902051516 71 0.0 0.0 0.00 0.00 0.00 89 1023.0
20260902050517 71 0.0 0.0 0.00 0.00 0.00 89 1023.0
20260902045517 71 0.0 0.0 0.00 0.00 0.00 88 1023.0
20260902044517 71 0.0 0.0 0.00 0.00 0.00 88 1022.7
20260902043537 72 0.0 0.0 0.00 0.00 0.00 87 1022.8
20260902042517 72 0.0 0.0 0.00 0.00 0.00 87 1022.8
20260902041516 72 0.0 0.0 0.00 0.00 0.00 87 1022.6
20260902040537 72 0.0 0.0 0.00 0.00 0.00 87 1022.4
20260902035516 72 0.0 0.0 0.00 0.00 0.00 87 1022.4
20260902034517 72 0.0 0.0 0.00 0.00 0.00 87 1022.1
20260902033517 73 0.0 0.0 0.00 0.00 0.00 86 1022.1
20260902032517 73 0.0 0.0 0.00 0.00 0.00 86 1022.1
20260902031517 73 0.0 0.0 0.00 0.00 0.00 86 1022.0
20260902030517 73 0.0 0.0 0.00 0.00 0.00 86 1022.0
20260902025516 73 0.0 0.0 0.00 0.00 0.00 85 1022.1
20260902024537 74 0.0 0.0 0.00 0.00 0.00 85 1022.0
20260902023517 74 0.0 0.9 0.00 0.00 0.00 85 1022.0
20260902022517 74 0.0 0.0 0.00 0.00 0.00 84 1022.0
20260902021516 75 0.0 0.0 0.00 0.00 0.00 84 1021.5
20260902020516 75 0.0 0.0 0.00 0.00 0.00 83 1021.6
20260902015517 75 0.0 0.0 0.00 0.00 0.00 83 1021.7
20260902014516 76 0.0 0.0 0.00 0.00 0.00 82 1021.4
20260902013517 76 0.0 0.0 0.00 0.00 0.00 81 1021.5
20260902012517 76 0.0 0.0 0.00 0.00 0.00 80 1021.4
20260902011517 77 0.0 0.0 0.00 0.00 0.00 79 1021.2
20260902010516 78 0.0 0.9 0.00 0.00 0.00 78 1021.1
20260902005516 78 0.0 0.0 0.00 0.00 0.00 77 1021.1
20260902004516 78 0.0 0.0 0.00 0.00 0.00 76 1020.9
20260902003517 78 0.0 0.0 0.00 0.00 0.00 75 1020.9
20260902002516 79 0.0 0.0 0.00 0.00 0.00 76 1020.9
20260902001536 79 0.0 0.0 0.00 0.00 0.00 76 1021.0
20260902000516 80 0.0 0.0 0.00 0.00 0.00 74 1020.9
20260901235516 80 0.0 0.9 0.00 0.00 0.00 73 1020.9
20260901234536 81 0.0 0.0 0.00 0.00 0.00 72 1020.9
20260901233516 82 0.0 0.0 0.00 0.00 0.00 70 1020.9
20260901232519 82 0.0 0.9 0.00 0.00 0.00 69 1021.2
20260901231516 83 0.0 0.0 0.00 0.00 0.00 67 1021.2
20260901230536 84 0.0 0.0 0.00 0.00 0.00 66 1021.4
20260901225516 85 0.0 0.0 0.00 0.00 0.00 64 1021.3
20260901224516 85 0.0 0.0 0.00 0.00 0.00 64 1021.4
20260901223516 86 0 0.9 2.6 0.00 0.00 0.00 59 1021.5
20260901222516 87 0.0 0.9 0.00 0.00 0.00 62 1021.5
20260901221516 87 23 0.9 2.6 0.00 0.00 0.00 56 1021.5
20260901220516 87 23 0.9 3.5 0.00 0.00 0.00 56 1021.4
20260901215516 87 23 0.9 2.6 0.00 0.00 0.00 56 1021.4
20260901214516 88 0.0 0.9 0.00 0.00 0.00 58 1021.5
20260901213516 88 0 1.7 3.5 0.00 0.00 0.00 53 1021.5
20260901212516 88 23 0.9 2.6 0.00 0.00 0.00 51 1021.6
20260901211516 89 23 0.9 2.6 0.00 0.00 0.00 51 1021.6
20260901210516 90 23 0.9 1.7 0.00 0.00 0.00 52 1021.7
20260901205516 90 0.0 2.6 0.00 0.00 0.00 51 1021.7
20260901204516 91 23 0.9 2.6 0.00 0.00 0.00 49 1021.8
20260901203516 91 23 0.9 3.5 0.00 0.00 0.00 49 1021.9
20260901202516 91 23 0.9 1.7 0.00 0.00 0.00 49 1021.8
20260901201536 91 23 1.7 2.6 0.00 0.00 0.00 50 1022.0
20260901200557 91 45 0.9 5.2 0.00 0.00 0.00 51 1022.1
20260901195516 91 23 1.7 4.3 0.00 0.00 0.00 49 1022.1
20260901194516 91 23 0.9 4.3 0.00 0.00 0.00 51 1022.2
20260901193516 91 23 1.7 4.3 0.00 0.00 0.00 51 1022.3
20260901192516 91 23 1.7 3.5 0.00 0.00 0.00 50 1022.3
20260901191516 91 23 0.9 1.7 0.00 0.00 0.00 50 1022.4
20260901190516 90 0 1.7 3.5 0.00 0.00 0.00 50 1022.6
20260901185516 91 23 1.7 3.5 0.00 0.00 0.00 49 1022.7
20260901184516 91 0 0.9 3.5 0.00 0.00 0.00 50 1022.7
20260901183516 90 23 0.9 2.6 0.00 0.00 0.00 50 1022.9
20260901182516 89 23 1.7 2.6 0.00 0.00 0.00 50 1022.8
20260901181516 89 23 1.7 4.3 0.00 0.00 0.00 51 1022.9
20260901180516 89 23 0.9 3.5 0.00 0.00 0.00 51 1023.1
20260901175516 89 0.0 1.7 0.00 0.00 0.00 55 1023.0
20260901174516 89 23 1.7 3.5 0.00 0.00 0.00 54 1023.1
20260901173516 89 0 1.7 4.3 0.00 0.00 0.00 55 1023.1
20260901172516 88 23 1.7 4.3 0.00 0.00 0.00 54 1023.1
20260901171516 88 23 1.7 3.5 0.00 0.00 0.00 55 1023.2
20260901170516 87 0 0.9 1.7 0.00 0.00 0.00 59 1023.4
20260901165515 86 23 0.9 1.7 0.00 0.00 0.00 60 1023.4
20260901164516 86 23 0.9 2.6 0.00 0.00 0.00 64 1023.7
20260901163516 85 0 1.7 3.5 0.00 0.00 0.00 64 1023.8
20260901162516 84 23 1.7 3.5 0.00 0.00 0.00 66 1023.7
20260901161515 83 23 1.7 3.5 0.00 0.00 0.00 66 1023.8
20260901160516 83 23 0.9 1.7 0.00 0.00 0.00 68 1024.0
20260901155535 82 0.0 0.9 0.00 0.00 0.00 72 1023.9
20260901154515 81 0.0 0.0 0.00 0.00 0.00 75 1024.1
20260901153515 80 0.0 0.0 0.00 0.00 0.00 77 1024.4
20260901152516 80 0.0 0.9 0.00 0.00 0.00 79 1024.2
20260901151516 79 0.0 1.7 0.00 0.00 0.00 79 1024.2
20260901150517 78 0.0 0.9 0.00 0.00 0.00 83 1024.2
20260901145515 77 0.0 0.9 0.00 0.00 0.00 83 1024.2
20260901144515 76 0.0 1.7 0.00 0.00 0.00 84 1024.1
20260901143515 75 0.0 0.0 0.00 0.00 0.00 86 1024.0
20260901142515 74 0.0 0.9 0.00 0.00 0.00 88 1024.0
20260901141515 73 0.0 0.0 0.00 0.00 0.00 89 1023.9
20260901140516 72 0.0 0.0 0.00 0.00 0.00 90 1023.8
20260901135515 71 0.0 0.9 0.00 0.00 0.00 89 1023.7
20260901134515 71 0.0 0.0 0.00 0.00 0.00 87 1023.7
20260901133515 70 0.0 0.9 0.00 0.00 0.00 85 1023.7
20260901132515 70 0.0 0.0 0.00 0.00 0.00 84 1023.6
20260901131515 69 0.0 0.0 0.00 0.00 0.00 82 1023.8
20260901130515 69 0.0 0.0 0.00 0.00 0.00 81 1024.0
20260901125515 68 0.0 0.0 0.00 0.00 0.00 79 1023.8
20260901124535 68 0.0 0.0 0.00 0.00 0.00 78 1023.7
20260901123515 68 0.0 0.0 0.00 0.00 0.00 78 1023.8
20260901122516 67 0.0 0.0 0.00 0.00 0.00 79 1023.9
20260901121515 67 0.0 0.0 0.00 0.00 0.00 80 1023.9
20260901120515 67 0.0 0.0 0.00 0.00 0.00 80 1023.9
20260901115535 67 0.0 0.0 0.00 0.00 0.00 80 1023.8
20260901114517 66 0.0 0.0 0.00 0.00 0.00 80 1023.5
20260901113517 66 0.0 0.0 0.00 0.00 0.00 81 1023.5
20260901112517 66 0.0 0.0 0.00 0.00 0.00 81 1023.4
20260901111517 66 0.0 0.0 0.00 0.00 0.00 81 1023.3
20260901110515 66 0.0 0.0 0.00 0.00 0.00 82 1023.1
20260901105517 66 0.0 0.0 0.00 0.00 0.00 83 1023.1
20260901104537 66 0.0 0.0 0.00 0.00 0.00 83 1023.0
20260901103517 66 0.0 0.0 0.00 0.00 0.00 84 1022.9
20260901102537 67 0.0 0.0 0.00 0.00 0.00 83 1022.8
20260901101517 67 0.0 0.0 0.00 0.00 0.00 83 1022.9
20260901100517 67 0.0 0.0 0.00 0.00 0.00 83 1022.8
20260901095517 67 0.0 0.0 0.00 0.00 0.00 83 1022.7
20260901094517 67 0.0 0.0 0.00 0.00 0.00 84 1022.6
20260901093517 67 0.0 0.0 0.00 0.00 0.00 84 1022.6
20260901092517 67 0.0 0.0 0.00 0.00 0.00 85 1022.7